TimeEST,TemperatureF,Dew PointF,Humidity,Sea Level PressureIn,VisibilityMPH,Wind Direction,Wind SpeedMPH,Gust SpeedMPH,PrecipitationIn,Events,Conditions,WindDirDegrees,DateUTC
12:51 AM,32.0,23.0,69,30.45,10.0,NNW,6.9,-,N/A,,Clear,330,2012-11-17 05:51:00
1:51 AM,33.1,24.1,70,30.47,10.0,NNW,8.1,-,N/A,,Clear,340,2012-11-17 06:51:00
2:51 AM,33.1,24.1,70,30.48,10.0,NNW,4.6,-,N/A,,Clear,340,2012-11-17 07:51:00
3:51 AM,32.0,23.0,69,30.50,10.0,North,4.6,-,N/A,,Clear,350,2012-11-17 08:51:00
4:51 AM,32.0,24.1,73,30.52,10.0,North,6.9,-,N/A,,Clear,350,2012-11-17 09:51:00
5:51 AM,30.9,23.0,72,30.55,10.0,Calm,Calm,-,N/A,,Clear,0,2012-11-17 10:51:00
6:51 AM,30.0,23.0,75,30.57,10.0,North,4.6,-,N/A,,Partly Cloudy,10,2012-11-17 11:51:00
7:51 AM,34.0,26.1,73,30.60,10.0,Calm,Calm,-,N/A,,Clear,0,2012-11-17 12:51:00
8:51 AM,39.0,28.0,65,30.61,10.0,NNE,6.9,-,N/A,,Clear,20,2012-11-17 13:51:00
9:51 AM,43.0,28.9,58,30.63,10.0,North,9.2,16.1,N/A,,Clear,10,2012-11-17 14:51:00
10:51 AM,46.4,28.4,50,30.61,10.0,NNE,11.5,-,N/A,,Clear,20,2012-11-17 15:51:00
11:51 AM,46.9,28.0,48,30.60,10.0,North,6.9,-,N/A,,Clear,10,2012-11-17 16:51:00
12:51 PM,48.9,28.0,44,30.58,10.0,North,8.1,-,N/A,,Clear,10,2012-11-17 17:51:00
1:51 PM,48.9,26.1,41,30.58,10.0,NE,8.1,-,N/A,,Partly Cloudy,40,2012-11-17 18:51:00
2:51 PM,48.9,25.0,39,30.58,10.0,NE,6.9,-,N/A,,Clear,40,2012-11-17 19:51:00
3:51 PM,46.9,25.0,42,30.59,10.0,NNE,4.6,-,N/A,,Clear,30,2012-11-17 20:51:00
4:51 PM,44.1,25.0,47,30.59,10.0,North,3.5,-,N/A,,Clear,360,2012-11-17 21:51:00
5:51 PM,37.9,25.0,60,30.61,10.0,Calm,Calm,-,N/A,,Clear,0,2012-11-17 22:51:00
6:51 PM,35.6,24.8,65,30.61,10.0,Calm,Calm,-,N/A,,Clear,0,2012-11-17 23:51:00
7:51 PM,33.1,25.0,72,30.62,10.0,Calm,Calm,-,N/A,,Clear,0,2012-11-18 00:51:00
8:51 PM,30.0,24.1,79,30.64,10.0,Calm,Calm,-,N/A,,Clear,0,2012-11-18 01:51:00
9:51 PM,34.0,26.1,73,30.65,10.0,North,3.5,-,N/A,,Clear,10,2012-11-18 02:51:00
10:51 PM,32.0,26.1,79,30.66,10.0,NNE,4.6,-,N/A,,Clear,30,2012-11-18 03:51:00
11:51 PM,30.9,25.0,79,30.66,10.0,NNE,4.6,-,N/A,,Clear,20,2012-11-18 04:51:00